Location: Cedar Ridge
(38.0658°N, 120.2769°W)
Time: 22:09:04
(UTC+00:00)

IRS-1D - Pass Details

Date: 10 September 2024
Orbit: 738 x 812 km, 98.8° (Epoch: 12 October)

Event Time Altitude Azimuth Distance (km) Brightness Sun altitude
Rises 12:34:42 0° 5° (N) 3,330 7.1 -13.2°
Reaches altitude 10° 12:37:09 10° 358° (N) 2,400 6.3 -12.8°
Maximum altitude 12:42:06 41° 290° (WNW) 1,161 4.1 -11.8°
Drops below altitude 10° 12:47:03 10° 221° (SW) 2,392 5.6 -10.9°
Enters shadow 12:47:40 - 219° (SW) 2,623 5.8 -10.8°
